Weather History for Oakland, CA

Change the Weather History Date:

Saturday, December 24, 2011

  Actual Average Record
Temperature  
Mean Temperature 42 °F 48 °F  
Max Temperature 55 °F 55 °F 69 °F (1967)
Min Temperature 29 °F 41 °F 29 °F (2011)
Degree Days  
Heating Degree Days 23 17  
Month to date heating degree days 388 381  
Since 1 July heating degree days 1005 1056  
Cooling Degree Days 0 0  
Month to date cooling degree days 0 0  
Year to date cooling degree days 152 138  
Moisture  
Dew Point 30 °F    
Average Humidity 63    
Maximum Humidity 80    
Minimum Humidity 46    
Precipitation  
Precipitation 0.00 in 0.13 in 1.94 in (1979)
Month to date precipitation 0.10 2.79  
Year to date precipitation 15.87 19.94  
Since 1 July precipitation 3.06 6.72  
Sea Level Pressure  
Sea Level Pressure 30.45 in    
Wind  
Wind Speed 3 mph (ESE)    
Max Wind Speed 10 mph    
Max Gust Speed 13 mph    
Visibility 9 miles    
Events      
T = Trace of Precipitation, MM = Missing Value Source: NWS Daily Summary

Daily Weather History Graph

Daily Weather History Graph

Search for Another Location

Airport:

Trip Planner

Search our weather history database for the weather conditions in past years. The results will help you decide how hot, cold, wet, or windy it might be!

Date:

Astronomy

Dec. 24, 2011 Rise Set
Actual Time 7:21 AM PST 4:55 PM PST
Civil Twilight 6:52 AM PST 5:24 PM PST
Nautical Twilight 6:19 AM PST 5:57 PM PST
Astronomical Twilight 5:47 AM PST 6:29 PM PST
Moon 7:14 AM PST (12/24) 5:14 PM PST (12/24)
Length of Visible Light 10h 32m
Length of Day
9h 33m
Waxing Crescent, 0% of the Moon is Illuminated
Dec 24
Waxing Crescent
Dec 31
First Quarter
Jan 8
Full
Jan 16
Last Quarter
Jan 22
New

Hourly Weather History & Observations

Time (PST) Temp. Windchill Dew Point Humidity Pressure Visibility Wind Dir Wind Speed Gust Speed Precip Events Conditions
12:53 AM 33.1 °F - 26.1 °F 75% 30.51 in 10.0 mi Calm Calm - N/A   Clear
1:53 AM 37.0 °F - 26.1 °F 65% 30.51 in 10.0 mi Calm Calm - N/A   Clear
2:53 AM 32.0 °F 28.7 °F 25.0 °F 75% 30.51 in 10.0 mi ESE 3.5 mph - N/A   Clear
3:53 AM 34.0 °F 28.8 °F 23.0 °F 64% 30.49 in 10.0 mi East 5.8 mph - N/A   Clear
4:53 AM 37.9 °F - 25.0 °F 60% 30.50 in 10.0 mi Calm Calm - N/A   Clear
5:53 AM 32.0 °F 26.4 °F 23.0 °F 69% 30.49 in 10.0 mi ENE 5.8 mph - N/A   Clear
6:53 AM 34.0 °F 31.0 °F 24.1 °F 67% 30.49 in 10.0 mi ENE 3.5 mph - N/A   Clear
7:53 AM 32.0 °F - 25.0 °F 75% 30.49 in 10.0 mi Calm Calm - N/A   Clear
8:53 AM 42.1 °F 38.4 °F 28.9 °F 60% 30.49 in 10.0 mi SE 5.8 mph - N/A   Clear
9:53 AM 46.0 °F - 33.1 °F 61% 30.50 in 10.0 mi Calm Calm - N/A   Clear
10:53 AM 46.9 °F - 35.1 °F 63% 30.48 in 10.0 mi West 3.5 mph - N/A   Clear
11:53 AM 48.2 °F - 35.6 °F 62% 30.44 in 8.0 mi WSW 5.8 mph - N/A   Clear
12:53 PM 52.0 °F - 36.0 °F 54% 30.42 in 9.0 mi West 6.9 mph - N/A   Clear
1:53 PM 53.1 °F - 37.9 °F 57% 30.40 in 8.0 mi WSW 4.6 mph - N/A   Clear
2:53 PM 52.0 °F - 37.9 °F 59% 30.39 in 8.0 mi Calm Calm - N/A   Partly Cloudy
3:53 PM 53.6 °F - 37.4 °F 54% 30.38 in 10.0 mi West 3.5 mph - N/A   Scattered Clouds
4:53 PM 48.9 °F - 42.1 °F 77% 30.40 in 10.0 mi Calm Calm - N/A   Scattered Clouds
5:53 PM 48.0 °F - 32.0 °F 54% 30.40 in 9.0 mi East 6.9 mph - N/A   Partly Cloudy
6:53 PM 46.9 °F - 28.9 °F 50% 30.40 in 9.0 mi East 8.1 mph - N/A   Clear
7:53 PM 48.0 °F - 28.0 °F 46% 30.41 in 9.0 mi East 6.9 mph - N/A   Clear
8:53 PM 44.1 °F 40.8 °F 28.0 °F 53% 30.41 in 9.0 mi East 5.8 mph - N/A   Clear
9:53 PM 44.1 °F 40.8 °F 32.0 °F 63% 30.42 in 9.0 mi SE 5.8 mph - N/A   Clear
10:53 PM 39.9 °F - 27.0 °F 60% 30.42 in 9.0 mi Calm Calm - N/A   Clear
11:53 PM 36.0 °F - 28.0 °F 73% 30.42 in 9.0 mi Calm Calm - N/A   Clear